{"data":{"norad_id":43923,"intl_designator":"2019-002B","name":"IRIDIUM 176","alt_names":[],"object_type":"PAYLOAD","status":"ACTIVE","operator":null,"country":"US","launch_date":"2019-01-11","launch_site_code":"AFWTR","launch_vehicle":null,"mission":null,"orbit_class":"UNKNOWN","rcs_meters":null,"size_class":null,"mass_kg":null,"dimensions":null,"purposes":["comms"],"wikipedia_slug":null,"has_3d_model":false,"image_url":null,"decayed_at":null,"tle_current":{"epoch":"2026-09-20T02:38:14.591904Z","epoch_age_seconds":49233,"freshness":"FRESH","line1":"1 43923U 19002B   26263.10989111  .00000396  00000+0  58924-4 0  9991","line2":"2 43923  86.6092 313.8703 0002412  92.6738 267.4755 14.72250131413216","mean_motion":14.72250131,"eccentricity":0.0002412,"inclination_deg":86.6092,"raan_deg":313.8703,"arg_perigee_deg":92.6738,"mean_anomaly_deg":267.4755,"bstar":5.8924e-5,"rev_number":41321,"period_min":97.809466589886,"perigee_km":652.19782479612,"apogee_km":655.59007652672,"semimajor_km":7032.0309506614,"source":"CELESTRAK","updated_at":"2026-09-20T09:00:36.355140Z"}}}